Time,TemperatureF,DewpointF,PressureIn,WindDirection,WindDirectionDegrees,WindSpeedMPH,WindSpeedGustMPH,Humidity,HourlyPrecipIn,Conditions,Clouds,dailyrainin,SolarRadiationWatts/m^2,SoftwareType,DateUTC
2013-01-03 00:04:00,21.3,16.7,30.10,WSW,242,2.0,4.0,82,0.00,,,0.00,0,Wunderground v.1.15,2013-01-03 06:04:00,
2013-01-03 00:10:00,21.3,16.7,30.10,WSW,250,5.0,5.0,82,0.00,,,0.00,0,Wunderground v.1.15,2013-01-03 06:10:00,
2013-01-03 00:15:00,21.3,16.7,30.10,WSW,250,3.0,5.0,82,0.00,,,0.00,0,Wunderground v.1.15,2013-01-03 06:15:00,
2013-01-03 00:20:00,21.3,16.7,30.10,WSW,240,4.0,4.0,82,0.00,,,0.00,0,Wunderground v.1.15,2013-01-03 06:20:00,
2013-01-03 00:25:00,21.3,16.7,30.10,WSW,248,2.0,4.0,82,0.00,,,0.00,0,Wunderground v.1.15,2013-01-03 06:25:00,
2013-01-03 00:31:00,21.3,16.7,30.10,WSW,248,3.0,3.0,82,0.00,,,0.00,0,Wunderground v.1.15,2013-01-03 06:31:00,
2013-01-03 00:36:00,21.2,16.8,30.10,WSW,246,4.0,4.0,83,0.00,,,0.00,0,Wunderground v.1.15,2013-01-03 06:36:00,
2013-01-03 00:41:00,21.3,16.9,30.10,WSW,252,2.0,3.0,83,0.00,,,0.00,0,Wunderground v.1.15,2013-01-03 06:41:00,
2013-01-03 00:47:00,21.2,16.8,30.11,WNW,283,2.0,7.0,83,0.00,,,0.00,0,Wunderground v.1.15,2013-01-03 06:47:00,
2013-01-03 00:52:00,21.2,16.8,30.10,WSW,241,6.0,6.0,83,0.00,,,0.00,0,Wunderground v.1.15,2013-01-03 06:52:00,
2013-01-03 00:57:00,21.2,16.8,30.10,West,272,1.0,8.0,83,0.00,,,0.00,0,Wunderground v.1.15,2013-01-03 06:57:00,
2013-01-03 01:08:00,21.2,16.8,30.10,WSW,257,1.0,5.0,83,0.00,,,0.00,0,Wunderground v.1.15,2013-01-03 07:08:00,
2013-01-03 01:14:00,21.2,16.8,30.10,West,259,3.0,3.0,83,0.00,,,0.00,0,Wunderground v.1.15,2013-01-03 07:14:00,
2013-01-03 01:19:00,21.3,16.9,30.10,WNW,284,1.0,3.0,83,0.00,,,0.00,0,Wunderground v.1.15,2013-01-03 07:19:00,
2013-01-03 01:24:00,21.3,16.9,30.11,WSW,254,4.0,4.0,83,0.00,,,0.00,0,Wunderground v.1.15,2013-01-03 07:24:00,
2013-01-03 01:30:00,21.3,17.2,30.11,West,261,3.0,6.0,84,0.00,,,0.00,0,Wunderground v.1.15,2013-01-03 07:30:00,
2013-01-03 01:35:00,21.3,17.2,30.11,West,263,3.0,4.0,84,0.00,,,0.00,0,Wunderground v.1.15,2013-01-03 07:35:00,
2013-01-03 01:41:00,21.3,17.2,30.11,West,265,5.0,5.0,84,0.00,,,0.00,0,Wunderground v.1.15,2013-01-03 07:41:00,
2013-01-03 01:46:00,21.4,17.3,30.11,WSW,253,3.0,5.0,84,0.00,,,0.00,0,Wunderground v.1.15,2013-01-03 07:46:00,
2013-01-03 01:52:00,21.4,17.3,30.11,West,259,5.0,5.0,84,0.00,,,0.00,0,Wunderground v.1.15,2013-01-03 07:52:00,
2013-01-03 01:57:00,21.4,17.3,30.12,West,271,5.0,7.0,84,0.00,,,0.00,0,Wunderground v.1.15,2013-01-03 07:57:00,
2013-01-03 02:02:00,21.4,17.3,30.11,WSW,256,2.0,5.0,84,0.00,,,0.00,0,Wunderground v.1.15,2013-01-03 08:02:00,
2013-01-03 02:07:00,21.5,17.4,30.11,WNW,286,2.0,8.0,84,0.00,,,0.00,0,Wunderground v.1.15,2013-01-03 08:07:00,
2013-01-03 02:12:00,21.5,17.7,30.12,West,267,0.0,5.0,85,0.00,,,0.00,0,Wunderground v.1.15,2013-01-03 08:12:00,
2013-01-03 02:17:00,21.5,17.7,30.12,West,276,4.0,5.0,85,0.00,,,0.00,0,Wunderground v.1.15,2013-01-03 08:17:00,
2013-01-03 02:22:00,21.5,17.7,30.12,West,271,3.0,5.0,85,0.00,,,0.00,0,Wunderground v.1.15,2013-01-03 08:22:00,
2013-01-03 02:27:00,21.5,17.7,30.12,WNW,286,4.0,10.0,85,0.00,,,0.00,0,Wunderground v.1.15,2013-01-03 08:27:00,
2013-01-03 02:32:00,21.5,17.7,30.12,West,277,2.0,3.0,85,0.00,,,0.00,0,Wunderground v.1.15,2013-01-03 08:32:00,
2013-01-03 02:37:00,21.6,18.1,30.12,WNW,290,2.0,8.0,86,0.00,,,0.00,0,Wunderground v.1.15,2013-01-03 08:37:00,
2013-01-03 02:42:00,21.5,17.7,30.12,WNW,292,3.0,5.0,85,0.00,,,0.00,0,Wunderground v.1.15,2013-01-03 08:42:00,
2013-01-03 02:47:00,21.6,18.1,30.12,SW,235,4.0,5.0,86,0.00,,,0.00,0,Wunderground v.1.15,2013-01-03 08:47:00,
2013-01-03 02:52:00,21.6,18.1,30.11,WNW,284,2.0,4.0,86,0.00,,,0.00,0,Wunderground v.1.15,2013-01-03 08:52:00,
2013-01-03 02:57:00,21.6,18.1,30.11,WNW,292,3.0,5.0,86,0.00,,,0.00,0,Wunderground v.1.15,2013-01-03 08:57:00,
2013-01-03 03:02:00,21.6,18.1,30.11,West,269,5.0,6.0,86,0.00,,,0.00,0,Wunderground v.1.15,2013-01-03 09:02:00,
2013-01-03 03:07:00,21.6,18.1,30.11,WSW,248,3.0,6.0,86,0.00,,,0.00,0,Wunderground v.1.15,2013-01-03 09:07:00,
2013-01-03 03:12:00,21.6,18.1,30.11,WSW,237,3.0,5.0,86,0.00,,,0.00,0,Wunderground v.1.15,2013-01-03 09:12:00,
2013-01-03 03:17:00,21.6,18.1,30.10,WSW,240,7.0,7.0,86,0.00,,,0.00,0,Wunderground v.1.15,2013-01-03 09:17:00,
2013-01-03 03:22:00,21.6,18.1,30.10,WSW,246,0.0,4.0,86,0.00,,,0.00,0,Wunderground v.1.15,2013-01-03 09:22:00,
2013-01-03 03:27:00,21.6,18.1,30.11,SW,234,4.0,6.0,86,0.00,,,0.00,0,Wunderground v.1.15,2013-01-03 09:27:00,
2013-01-03 03:32:00,21.6,18.1,30.11,WSW,252,3.0,4.0,86,0.00,,,0.00,0,Wunderground v.1.15,2013-01-03 09:32:00,
2013-01-03 03:37:00,21.6,18.1,30.11,WSW,249,3.0,7.0,86,0.00,,,0.00,0,Wunderground v.1.15,2013-01-03 09:37:00,
2013-01-03 03:42:00,21.6,18.1,30.11,WSW,257,3.0,5.0,86,0.00,,,0.00,0,Wunderground v.1.15,2013-01-03 09:42:00,
2013-01-03 03:47:00,21.6,18.1,30.11,West,266,4.0,5.0,86,0.00,,,0.00,0,Wunderground v.1.15,2013-01-03 09:47:00,
2013-01-03 03:53:00,21.7,18.2,30.11,West,277,1.0,7.0,86,0.00,,,0.00,0,Wunderground v.1.15,2013-01-03 09:53:00,
2013-01-03 03:58:00,21.7,18.2,30.11,WSW,257,5.0,7.0,86,0.00,,,0.00,0,Wunderground v.1.15,2013-01-03 09:58:00,
2013-01-03 04:03:00,21.7,18.4,30.11,WSW,251,5.0,7.0,87,0.00,,,0.00,0,Wunderground v.1.15,2013-01-03 10:03:00,
2013-01-03 04:08:00,21.7,18.4,30.11,WSW,238,2.0,7.0,87,0.00,,,0.00,0,Wunderground v.1.15,2013-01-03 10:08:00,
2013-01-03 04:13:00,21.7,18.4,30.11,WNW,291,4.0,5.0,87,0.00,,,0.00,0,Wunderground v.1.15,2013-01-03 10:13:00,
2013-01-03 04:18:00,21.8,18.5,30.11,WSW,243,2.0,7.0,87,0.00,,,0.00,0,Wunderground v.1.15,2013-01-03 10:18:00,
2013-01-03 04:23:00,21.7,18.4,30.11,WSW,253,1.0,8.0,87,0.00,,,0.00,0,Wunderground v.1.15,2013-01-03 10:23:00,
2013-01-03 04:28:00,21.8,18.5,30.11,West,279,2.0,8.0,87,0.00,,,0.00,0,Wunderground v.1.15,2013-01-03 10:28:00,
2013-01-03 04:33:00,21.7,18.4,30.11,WNW,290,4.0,6.0,87,0.00,,,0.00,0,Wunderground v.1.15,2013-01-03 10:33:00,
2013-01-03 04:38:00,21.8,18.5,30.11,West,273,3.0,6.0,87,0.00,,,0.00,0,Wunderground v.1.15,2013-01-03 10:38:00,
2013-01-03 04:43:00,21.7,18.4,30.11,West,278,4.0,8.0,87,0.00,,,0.00,0,Wunderground v.1.15,2013-01-03 10:43:00,
2013-01-03 04:48:00,21.8,18.5,30.11,West,259,2.0,9.0,87,0.00,,,0.00,0,Wunderground v.1.15,2013-01-03 10:48:00,
2013-01-03 04:53:00,21.8,18.5,30.11,WSW,246,3.0,6.0,87,0.00,,,0.00,0,Wunderground v.1.15,2013-01-03 10:53:00,
2013-01-03 04:58:00,21.8,18.5,30.11,West,277,1.0,6.0,87,0.00,,,0.00,0,Wunderground v.1.15,2013-01-03 10:58:00,
2013-01-03 05:03:00,21.8,18.5,30.11,WNW,289,5.0,6.0,87,0.00,,,0.00,0,Wunderground v.1.15,2013-01-03 11:03:00,
2013-01-03 05:08:00,21.7,18.4,30.11,West,260,3.0,6.0,87,0.00,,,0.00,0,Wunderground v.1.15,2013-01-03 11:08:00,
2013-01-03 05:13:00,21.7,18.4,30.12,West,267,4.0,5.0,87,0.00,,,0.00,0,Wunderground v.1.15,2013-01-03 11:13:00,
2013-01-03 05:18:00,21.7,18.4,30.12,WSW,255,4.0,8.0,87,0.00,,,0.00,0,Wunderground v.1.15,2013-01-03 11:18:00,
2013-01-03 05:23:00,21.8,18.5,30.12,West,273,5.0,6.0,87,0.00,,,0.00,0,Wunderground v.1.15,2013-01-03 11:23:00,
2013-01-03 05:28:00,21.8,18.5,30.13,West,261,2.0,8.0,87,0.00,,,0.00,0,Wunderground v.1.15,2013-01-03 11:28:00,
2013-01-03 05:33:00,21.7,18.4,30.13,WSW,255,4.0,8.0,87,0.00,,,0.00,0,Wunderground v.1.15,2013-01-03 11:33:00,
2013-01-03 05:38:00,21.8,18.5,30.13,WNW,292,5.0,9.0,87,0.00,,,0.00,0,Wunderground v.1.15,2013-01-03 11:38:00,
2013-01-03 05:43:00,21.8,18.5,30.13,WSW,244,4.0,6.0,87,0.00,,,0.00,0,Wunderground v.1.15,2013-01-03 11:43:00,
2013-01-03 05:48:00,21.8,18.5,30.13,WSW,239,3.0,6.0,87,0.00,,,0.00,0,Wunderground v.1.15,2013-01-03 11:48:00,
2013-01-03 05:53:00,21.8,18.5,30.13,West,269,3.0,6.0,87,0.00,,,0.00,0,Wunderground v.1.15,2013-01-03 11:53:00,
2013-01-03 05:58:00,21.8,18.5,30.13,West,262,2.0,6.0,87,0.00,,,0.00,0,Wunderground v.1.15,2013-01-03 11:58:00,
2013-01-03 06:03:00,21.8,18.5,30.13,West,264,3.0,8.0,87,0.00,,,0.00,0,Wunderground v.1.15,2013-01-03 12:03:00,
2013-01-03 06:08:00,21.8,18.5,30.14,WNW,294,4.0,9.0,87,0.00,,,0.00,0,Wunderground v.1.15,2013-01-03 12:08:00,
2013-01-03 06:13:00,21.8,18.5,30.14,West,267,2.0,9.0,87,0.00,,,0.00,0,Wunderground v.1.15,2013-01-03 12:13:00,
2013-01-03 06:18:00,21.8,18.5,30.14,West,265,3.0,9.0,87,0.00,,,0.00,0,Wunderground v.1.15,2013-01-03 12:18:00,
2013-01-03 06:23:00,21.8,18.5,30.14,West,259,1.0,6.0,87,0.00,,,0.00,0,Wunderground v.1.15,2013-01-03 12:23:00,
2013-01-03 06:29:00,21.8,18.5,30.14,West,268,2.0,6.0,87,0.00,,,0.00,0,Wunderground v.1.15,2013-01-03 12:29:00,
2013-01-03 06:34:00,21.8,18.5,30.15,West,276,3.0,4.0,87,0.00,,,0.00,0,Wunderground v.1.15,2013-01-03 12:34:00,
2013-01-03 06:39:00,21.8,18.5,30.15,West,267,2.0,5.0,87,0.00,,,0.00,0,Wunderground v.1.15,2013-01-03 12:39:00,
2013-01-03 06:44:00,21.9,18.6,30.15,NW,311,1.0,8.0,87,0.00,,,0.00,0,Wunderground v.1.15,2013-01-03 12:44:00,
2013-01-03 06:49:00,21.8,18.5,30.16,West,275,5.0,8.0,87,0.00,,,0.00,0,Wunderground v.1.15,2013-01-03 12:49:00,
2013-01-03 06:54:00,21.9,18.6,30.16,West,276,5.0,6.0,87,0.00,,,0.00,0,Wunderground v.1.15,2013-01-03 12:54:00,
2013-01-03 06:59:00,21.9,18.6,30.16,WNW,289,3.0,6.0,87,0.00,,,0.00,0,Wunderground v.1.15,2013-01-03 12:59:00,
2013-01-03 07:04:00,21.9,18.6,30.16,WSW,238,5.0,9.0,87,0.00,,,0.00,0,Wunderground v.1.15,2013-01-03 13:04:00,
2013-01-03 07:09:00,21.9,18.6,30.16,WNW,290,4.0,9.0,87,0.00,,,0.00,0,Wunderground v.1.15,2013-01-03 13:09:00,
2013-01-03 07:14:00,21.9,18.6,30.16,WNW,299,3.0,8.0,87,0.00,,,0.00,0,Wunderground v.1.15,2013-01-03 13:14:00,
2013-01-03 07:19:00,22.0,18.7,30.17,West,279,5.0,8.0,87,0.00,,,0.00,0,Wunderground v.1.15,2013-01-03 13:19:00,
2013-01-03 07:24:00,22.0,18.7,30.17,WNW,300,3.0,6.0,87,0.00,,,0.00,0,Wunderground v.1.15,2013-01-03 13:24:00,
2013-01-03 07:28:00,22.0,18.7,30.17,West,263,1.0,8.0,87,0.00,,,0.00,0,Wunderground v.1.15,2013-01-03 13:28:00,
2013-01-03 07:33:00,22.0,18.5,30.17,WNW,290,1.0,8.0,86,0.00,,,0.00,0,Wunderground v.1.15,2013-01-03 13:33:00,
2013-01-03 07:38:00,22.0,18.5,30.18,West,277,5.0,8.0,86,0.00,,,0.00,5,Wunderground v.1.15,2013-01-03 13:38:00,
2013-01-03 07:44:00,22.0,18.5,30.17,WNW,288,3.0,7.0,86,0.00,,,0.00,7,Wunderground v.1.15,2013-01-03 13:44:00,
2013-01-03 07:49:00,22.0,18.5,30.17,WNW,288,2.0,9.0,86,0.00,,,0.00,9,Wunderground v.1.15,2013-01-03 13:49:00,
2013-01-03 07:54:00,22.0,18.5,30.17,SW,236,2.0,6.0,86,0.00,,,0.00,12,Wunderground v.1.15,2013-01-03 13:54:00,
2013-01-03 07:59:00,22.0,18.5,30.18,WNW,296,0.0,8.0,86,0.00,,,0.00,12,Wunderground v.1.15,2013-01-03 13:59:00,
2013-01-03 08:04:00,22.0,18.5,30.18,WSW,252,2.0,5.0,86,0.00,,,0.00,18,Wunderground v.1.15,2013-01-03 14:04:00,
2013-01-03 08:09:00,22.0,18.5,30.19,WNW,288,5.0,9.0,86,0.00,,,0.00,19,Wunderground v.1.15,2013-01-03 14:09:00,
2013-01-03 08:14:00,22.0,18.5,30.19,WNW,288,1.0,8.0,86,0.00,,,0.00,23,Wunderground v.1.15,2013-01-03 14:14:00,
2013-01-03 08:19:00,22.0,18.5,30.19,WNW,299,3.0,8.0,86,0.00,,,0.00,28,Wunderground v.1.15,2013-01-03 14:19:00,
2013-01-03 08:24:00,22.0,18.5,30.19,NW,317,5.0,10.0,86,0.00,,,0.00,32,Wunderground v.1.15,2013-01-03 14:24:00,
2013-01-03 08:29:00,22.0,18.5,30.19,WNW,284,2.0,10.0,86,0.00,,,0.00,32,Wunderground v.1.15,2013-01-03 14:29:00,
2013-01-03 08:34:00,22.1,18.6,30.20,NW,308,8.0,10.0,86,0.00,,,0.00,35,Wunderground v.1.15,2013-01-03 14:34:00,
2013-01-03 08:39:00,22.1,18.6,30.19,WNW,294,4.0,10.0,86,0.00,,,0.00,40,Wunderground v.1.15,2013-01-03 14:39:00,
2013-01-03 08:44:00,22.1,18.6,30.20,WNW,293,3.0,7.0,86,0.00,,,0.00,49,Wunderground v.1.15,2013-01-03 14:44:00,
2013-01-03 08:49:00,22.1,18.6,30.20,WNW,289,3.0,12.0,86,0.00,,,0.00,54,Wunderground v.1.15,2013-01-03 14:49:00,
2013-01-03 08:54:00,22.1,18.6,30.19,West,272,4.0,10.0,86,0.00,,,0.00,58,Wunderground v.1.15,2013-01-03 14:54:00,
2013-01-03 08:59:00,22.2,18.4,30.19,WNW,296,4.0,10.0,85,0.00,,,0.00,63,Wunderground v.1.15,2013-01-03 14:59:00,
2013-01-03 09:04:00,22.2,18.7,30.20,West,265,3.0,6.0,86,0.00,,,0.00,70,Wunderground v.1.15,2013-01-03 15:04:00,
2013-01-03 09:09:00,22.2,18.7,30.19,West,276,2.0,9.0,86,0.00,,,0.00,76,Wunderground v.1.15,2013-01-03 15:09:00,
2013-01-03 09:14:00,22.3,18.7,30.20,West,269,3.0,8.0,86,0.00,,,0.00,83,Wunderground v.1.15,2013-01-03 15:14:00,
2013-01-03 09:19:00,22.3,18.7,30.20,WSW,248,2.0,8.0,86,0.00,,,0.00,88,Wunderground v.1.15,2013-01-03 15:19:00,
2013-01-03 09:24:00,22.4,18.8,30.20,WSW,240,2.0,7.0,86,0.00,,,0.00,97,Wunderground v.1.15,2013-01-03 15:24:00,
2013-01-03 09:29:00,22.5,18.9,30.20,WSW,242,3.0,7.0,86,0.00,,,0.00,109,Wunderground v.1.15,2013-01-03 15:29:00,
2013-01-03 09:34:00,22.6,19.0,30.20,West,273,5.0,8.0,86,0.00,,,0.00,120,Wunderground v.1.15,2013-01-03 15:34:00,
2013-01-03 09:39:00,22.7,18.9,30.20,West,269,4.0,9.0,85,0.00,,,0.00,125,Wunderground v.1.15,2013-01-03 15:39:00,
2013-01-03 09:44:00,22.8,19.0,30.20,West,275,4.0,7.0,85,0.00,,,0.00,123,Wunderground v.1.15,2013-01-03 15:44:00,
2013-01-03 09:49:00,22.9,19.3,30.20,WSW,255,3.0,7.0,86,0.00,,,0.00,128,Wunderground v.1.15,2013-01-03 15:49:00,
2013-01-03 09:54:00,23.0,19.2,30.21,WNW,285,3.0,6.0,85,0.00,,,0.00,135,Wunderground v.1.15,2013-01-03 15:54:00,
2013-01-03 09:59:00,23.1,19.3,30.21,West,277,1.0,8.0,85,0.00,,,0.00,130,Wunderground v.1.15,2013-01-03 15:59:00,
2013-01-03 10:04:00,23.2,19.4,30.21,WSW,257,6.0,8.0,85,0.00,,,0.00,130,Wunderground v.1.15,2013-01-03 16:04:00,
2013-01-03 10:09:00,23.3,19.5,30.22,West,281,1.0,8.0,85,0.00,,,0.00,128,Wunderground v.1.15,2013-01-03 16:09:00,
2013-01-03 10:14:00,23.4,19.6,30.22,WNW,291,1.0,7.0,85,0.00,,,0.00,120,Wunderground v.1.15,2013-01-03 16:14:00,
2013-01-03 10:19:00,23.4,19.6,30.23,WNW,294,2.0,9.0,85,0.00,,,0.00,125,Wunderground v.1.15,2013-01-03 16:19:00,
2013-01-03 10:24:00,23.4,19.3,30.23,WNW,295,8.0,14.0,84,0.00,,,0.00,121,Wunderground v.1.15,2013-01-03 16:24:00,
2013-01-03 10:29:00,23.5,19.4,30.22,West,274,2.0,14.0,84,0.00,,,0.00,130,Wunderground v.1.15,2013-01-03 16:29:00,
2013-01-03 10:34:00,23.5,19.4,30.23,West,279,4.0,11.0,84,0.00,,,0.00,134,Wunderground v.1.15,2013-01-03 16:34:00,
2013-01-03 10:39:00,23.5,19.4,30.23,West,280,4.0,11.0,84,0.00,,,0.00,141,Wunderground v.1.15,2013-01-03 16:39:00,
2013-01-03 10:44:00,23.5,19.4,30.23,NW,306,5.0,9.0,84,0.00,,,0.00,144,Wunderground v.1.15,2013-01-03 16:44:00,
2013-01-03 10:49:00,23.6,19.5,30.22,WNW,284,5.0,9.0,84,0.00,,,0.00,141,Wunderground v.1.15,2013-01-03 16:49:00,
2013-01-03 10:54:00,23.6,19.5,30.22,NW,309,2.0,10.0,84,0.00,,,0.00,169,Wunderground v.1.15,2013-01-03 16:54:00,
2013-01-03 10:59:00,23.6,19.5,30.22,WNW,290,8.0,12.0,84,0.00,,,0.00,174,Wunderground v.1.15,2013-01-03 16:59:00,
2013-01-03 11:04:00,23.7,19.6,30.22,WSW,249,5.0,11.0,84,0.00,,,0.00,181,Wunderground v.1.15,2013-01-03 17:04:00,
2013-01-03 11:09:00,23.8,19.4,30.22,West,279,2.0,11.0,83,0.00,,,0.00,179,Wunderground v.1.15,2013-01-03 17:09:00,
2013-01-03 11:14:00,23.9,19.5,30.22,West,275,4.0,13.0,83,0.00,,,0.00,183,Wunderground v.1.15,2013-01-03 17:14:00,
2013-01-03 11:19:00,23.8,19.4,30.22,WNW,282,4.0,13.0,83,0.00,,,0.00,185,Wunderground v.1.15,2013-01-03 17:19:00,
2013-01-03 11:24:00,23.8,19.4,30.22,WNW,297,5.0,13.0,83,0.00,,,0.00,171,Wunderground v.1.15,2013-01-03 17:24:00,
2013-01-03 11:29:00,23.8,19.4,30.22,WNW,290,3.0,13.0,83,0.00,,,0.00,172,Wunderground v.1.15,2013-01-03 17:29:00,
2013-01-03 11:34:00,23.8,19.4,30.22,WNW,288,5.0,12.0,83,0.00,,,0.00,178,Wunderground v.1.15,2013-01-03 17:34:00,
2013-01-03 11:39:00,23.9,19.5,30.22,NW,319,11.0,12.0,83,0.00,,,0.00,167,Wunderground v.1.15,2013-01-03 17:39:00,
2013-01-03 11:44:00,23.9,19.5,30.22,West,279,8.0,10.0,83,0.00,,,0.00,160,Wunderground v.1.15,2013-01-03 17:44:00,
2013-01-03 11:49:00,23.9,19.2,30.22,WNW,296,8.0,11.0,82,0.00,,,0.00,153,Wunderground v.1.15,2013-01-03 17:49:00,
2013-01-03 11:54:00,23.9,19.2,30.22,NW,304,2.0,10.0,82,0.00,,,0.00,169,Wunderground v.1.15,2013-01-03 17:54:00,
2013-01-03 11:59:00,24.0,19.3,30.21,West,276,5.0,11.0,82,0.00,,,0.00,186,Wunderground v.1.15,2013-01-03 17:59:00,
2013-01-03 12:04:00,24.0,19.3,30.21,NW,304,7.0,11.0,82,0.00,,,0.00,199,Wunderground v.1.15,2013-01-03 18:04:00,
2013-01-03 12:09:00,24.1,19.4,30.21,WNW,302,3.0,11.0,82,0.00,,,0.00,209,Wunderground v.1.15,2013-01-03 18:09:00,
2013-01-03 12:14:00,24.3,19.6,30.21,WNW,284,4.0,10.0,82,0.00,,,0.00,197,Wunderground v.1.15,2013-01-03 18:14:00,
2013-01-03 12:19:00,24.4,19.7,30.21,WNW,288,6.0,10.0,82,0.00,,,0.00,195,Wunderground v.1.15,2013-01-03 18:19:00,
2013-01-03 12:24:00,24.4,19.7,30.20,WNW,282,7.0,8.0,82,0.00,,,0.00,195,Wunderground v.1.15,2013-01-03 18:24:00,
2013-01-03 12:29:00,24.5,19.5,30.20,NW,311,5.0,8.0,81,0.00,,,0.00,221,Wunderground v.1.15,2013-01-03 18:29:00,
2013-01-03 12:34:00,24.5,19.5,30.20,West,279,4.0,12.0,81,0.00,,,0.00,225,Wunderground v.1.15,2013-01-03 18:34:00,
2013-01-03 12:39:00,24.6,19.6,30.20,West,262,7.0,12.0,81,0.00,,,0.00,221,Wunderground v.1.15,2013-01-03 18:39:00,
2013-01-03 12:44:00,24.6,19.6,30.20,West,281,7.0,10.0,81,0.00,,,0.00,202,Wunderground v.1.15,2013-01-03 18:44:00,
2013-01-03 12:49:00,24.6,19.6,30.20,WNW,292,5.0,11.0,81,0.00,,,0.00,190,Wunderground v.1.15,2013-01-03 18:49:00,
2013-01-03 12:54:00,24.5,19.5,30.20,WNW,292,11.0,11.0,81,0.00,,,0.00,197,Wunderground v.1.15,2013-01-03 18:54:00,
2013-01-03 12:59:00,24.5,19.5,30.20,NW,307,4.0,13.0,81,0.00,,,0.00,195,Wunderground v.1.15,2013-01-03 18:59:00,
2013-01-03 13:04:00,24.7,19.7,30.20,WNW,291,4.0,10.0,81,0.00,,,0.00,195,Wunderground v.1.15,2013-01-03 19:04:00,
2013-01-03 13:09:00,24.7,19.7,30.20,West,281,5.0,10.0,81,0.00,,,0.00,199,Wunderground v.1.15,2013-01-03 19:09:00,
2013-01-03 13:14:00,24.8,19.8,30.20,NW,318,10.0,11.0,81,0.00,,,0.00,209,Wunderground v.1.15,2013-01-03 19:14:00,
2013-01-03 13:51:00,25.7,20.4,30.20,West,278,2.0,6.0,80,0.00,,,0.00,207,Wunderground v.1.15,2013-01-03 19:51:00,
2013-01-03 13:56:00,25.6,20.6,30.21,WSW,258,2.0,9.0,81,0.00,,,0.00,193,Wunderground v.1.15,2013-01-03 19:56:00,
2013-01-03 14:01:00,25.5,20.5,30.21,WSW,250,4.0,8.0,81,0.00,,,0.00,176,Wunderground v.1.15,2013-01-03 20:01:00,
2013-01-03 14:06:00,25.4,20.4,30.21,WSW,240,6.0,9.0,81,0.00,,,0.00,139,Wunderground v.1.15,2013-01-03 20:06:00,
2013-01-03 14:11:00,25.2,20.5,30.22,WSW,251,3.0,6.0,82,0.00,,,0.00,137,Wunderground v.1.15,2013-01-03 20:11:00,
2013-01-03 14:16:00,25.2,20.5,30.22,WNW,290,10.0,12.0,82,0.00,,,0.00,123,Wunderground v.1.15,2013-01-03 20:16:00,
2013-01-03 14:21:00,25.1,20.4,30.22,West,265,3.0,5.0,82,0.00,,,0.00,183,Wunderground v.1.15,2013-01-03 20:21:00,
2013-01-03 14:26:00,25.2,20.5,30.22,WNW,292,6.0,10.0,82,0.00,,,0.00,192,Wunderground v.1.15,2013-01-03 20:26:00,
2013-01-03 14:31:00,25.1,20.4,30.22,WNW,289,4.0,7.0,82,0.00,,,0.00,162,Wunderground v.1.15,2013-01-03 20:31:00,
2013-01-03 14:36:00,25.0,20.0,30.22,WSW,238,5.0,11.0,81,0.00,,,0.00,128,Wunderground v.1.15,2013-01-03 20:36:00,
2013-01-03 14:41:00,24.9,19.9,30.22,West,274,5.0,9.0,81,0.00,,,0.00,121,Wunderground v.1.15,2013-01-03 20:41:00,
2013-01-03 14:46:00,24.8,19.8,30.22,WSW,256,5.0,10.0,81,0.00,,,0.00,121,Wunderground v.1.15,2013-01-03 20:46:00,
2013-01-03 14:51:00,24.8,19.8,30.22,WSW,250,3.0,7.0,81,0.00,,,0.00,135,Wunderground v.1.15,2013-01-03 20:51:00,
2013-01-03 14:56:00,24.8,19.8,30.23,West,259,0.0,7.0,81,0.00,,,0.00,100,Wunderground v.1.15,2013-01-03 20:56:00,
2013-01-03 15:01:00,24.8,19.8,30.23,West,276,5.0,7.0,81,0.00,,,0.00,109,Wunderground v.1.15,2013-01-03 21:01:00,
2013-01-03 15:06:00,24.7,19.7,30.23,WSW,258,2.0,7.0,81,0.00,,,0.00,113,Wunderground v.1.15,2013-01-03 21:06:00,
2013-01-03 15:11:00,24.7,19.7,30.23,WNW,288,4.0,11.0,81,0.00,,,0.00,104,Wunderground v.1.15,2013-01-03 21:11:00,
2013-01-03 15:16:00,24.6,19.6,30.24,WSW,239,7.0,11.0,81,0.00,,,0.00,95,Wunderground v.1.15,2013-01-03 21:16:00,
2013-01-03 15:21:00,24.6,19.3,30.24,West,260,5.0,8.0,80,0.00,,,0.00,100,Wunderground v.1.15,2013-01-03 21:21:00,
2013-01-03 15:26:00,24.5,19.2,30.24,WNW,288,6.0,8.0,80,0.00,,,0.00,90,Wunderground v.1.15,2013-01-03 21:26:00,
2013-01-03 15:31:00,24.4,19.1,30.24,West,272,4.0,5.0,80,0.00,,,0.00,114,Wunderground v.1.15,2013-01-03 21:31:00,
2013-01-03 15:36:00,24.5,19.2,30.24,WSW,258,1.0,5.0,80,0.00,,,0.00,79,Wunderground v.1.15,2013-01-03 21:36:00,
2013-01-03 15:41:00,24.4,18.8,30.25,West,274,5.0,7.0,79,0.00,,,0.00,70,Wunderground v.1.15,2013-01-03 21:41:00,
2013-01-03 15:46:00,24.3,18.7,30.24,WSW,257,3.0,7.0,79,0.00,,,0.00,63,Wunderground v.1.15,2013-01-03 21:46:00,
2013-01-03 15:51:00,24.1,18.5,30.25,West,261,4.0,5.0,79,0.00,,,0.00,40,Wunderground v.1.15,2013-01-03 21:51:00,
2013-01-03 15:56:00,23.9,18.3,30.24,West,272,2.0,8.0,79,0.00,,,0.00,32,Wunderground v.1.15,2013-01-03 21:56:00,
2013-01-03 16:01:00,23.7,18.1,30.25,SW,234,4.0,5.0,79,0.00,,,0.00,28,Wunderground v.1.15,2013-01-03 22:01:00,
2013-01-03 16:06:00,23.5,17.9,30.25,WNW,284,3.0,6.0,79,0.00,,,0.00,26,Wunderground v.1.15,2013-01-03 22:06:00,
2013-01-03 16:11:00,23.2,17.7,30.24,SW,236,3.0,9.0,79,0.00,,,0.00,23,Wunderground v.1.15,2013-01-03 22:11:00,
2013-01-03 16:16:00,23.0,17.5,30.25,WSW,238,2.0,9.0,79,0.00,,,0.00,19,Wunderground v.1.15,2013-01-03 22:16:00,
2013-01-03 16:21:00,22.8,17.3,30.25,West,265,3.0,6.0,79,0.00,,,0.00,14,Wunderground v.1.15,2013-01-03 22:21:00,
2013-01-03 16:26:00,22.5,17.0,30.25,WSW,240,3.0,7.0,79,0.00,,,0.00,11,Wunderground v.1.15,2013-01-03 22:26:00,
2013-01-03 16:31:00,22.2,16.7,30.25,WSW,237,3.0,6.0,79,0.00,,,0.00,7,Wunderground v.1.15,2013-01-03 22:31:00,
2013-01-03 16:36:00,22.0,16.5,30.25,WSW,256,2.0,6.0,79,0.00,,,0.00,5,Wunderground v.1.15,2013-01-03 22:36:00,
2013-01-03 16:41:00,21.8,16.3,30.26,WSW,251,3.0,4.0,79,0.00,,,0.00,0,Wunderground v.1.15,2013-01-03 22:41:00,
2013-01-03 16:46:00,21.6,16.1,30.25,WSW,243,1.0,5.0,79,0.00,,,0.00,0,Wunderground v.1.15,2013-01-03 22:46:00,
2013-01-03 16:51:00,21.4,15.9,30.26,WSW,243,2.0,3.0,79,0.00,,,0.00,0,Wunderground v.1.15,2013-01-03 22:51:00,
2013-01-03 16:56:00,21.2,16.0,30.26,WSW,246,3.0,6.0,80,0.00,,,0.00,0,Wunderground v.1.15,2013-01-03 22:56:00,
2013-01-03 17:01:00,21.1,15.9,30.26,WSW,245,2.0,6.0,80,0.00,,,0.00,0,Wunderground v.1.15,2013-01-03 23:01:00,
2013-01-03 17:06:00,21.0,15.8,30.26,WSW,246,2.0,7.0,80,0.00,,,0.00,0,Wunderground v.1.15,2013-01-03 23:06:00,
2013-01-03 17:11:00,20.9,15.7,30.26,WSW,242,2.0,3.0,80,0.00,,,0.00,0,Wunderground v.1.15,2013-01-03 23:11:00,
2013-01-03 17:16:00,20.7,15.5,30.26,WSW,242,1.0,3.0,80,0.00,,,0.00,0,Wunderground v.1.15,2013-01-03 23:16:00,
2013-01-03 17:21:00,20.6,15.4,30.26,WSW,242,0.0,2.0,80,0.00,,,0.00,0,Wunderground v.1.15,2013-01-03 23:21:00,
2013-01-03 17:26:00,20.3,15.1,30.26,WSW,242,1.0,3.0,80,0.00,,,0.00,0,Wunderground v.1.15,2013-01-03 23:26:00,
2013-01-03 17:31:00,20.1,14.9,30.26,WSW,242,0.0,2.0,80,0.00,,,0.00,0,Wunderground v.1.15,2013-01-03 23:31:00,
2013-01-03 17:36:00,19.8,14.6,30.27,WSW,242,1.0,2.0,80,0.00,,,0.00,0,Wunderground v.1.15,2013-01-03 23:36:00,
2013-01-03 17:42:00,19.6,14.7,30.27,WSW,255,0.0,4.0,81,0.00,,,0.00,0,Wunderground v.1.15,2013-01-03 23:42:00,
2013-01-03 17:47:00,19.3,14.4,30.27,WSW,249,1.0,6.0,81,0.00,,,0.00,0,Wunderground v.1.15,2013-01-03 23:47:00,
2013-01-03 17:52:00,19.0,14.1,30.27,WSW,249,2.0,4.0,81,0.00,,,0.00,0,Wunderground v.1.15,2013-01-03 23:52:00,
2013-01-03 17:56:00,18.8,13.9,30.27,WSW,249,0.0,4.0,81,0.00,,,0.00,0,Wunderground v.1.15,2013-01-03 23:56:00,
2013-01-03 18:02:00,18.5,13.6,30.27,WSW,252,4.0,5.0,81,0.00,,,0.00,0,Wunderground v.1.15,2013-01-04 00:02:00,
2013-01-03 18:07:00,18.3,13.4,30.27,WSW,251,0.0,6.0,81,0.00,,,0.00,0,Wunderground v.1.15,2013-01-04 00:07:00,
2013-01-03 18:12:00,18.1,13.3,30.27,WSW,248,2.0,6.0,81,0.00,,,0.00,0,Wunderground v.1.15,2013-01-04 00:12:00,
2013-01-03 18:17:00,17.9,13.3,30.27,SW,236,4.0,6.0,82,0.00,,,0.00,0,Wunderground v.1.15,2013-01-04 00:17:00,
2013-01-03 18:22:00,17.7,13.1,30.27,WSW,242,3.0,7.0,82,0.00,,,0.00,0,Wunderground v.1.15,2013-01-04 00:22:00,
2013-01-03 18:27:00,17.5,12.9,30.27,WSW,244,5.0,9.0,82,0.00,,,0.00,0,Wunderground v.1.15,2013-01-04 00:27:00,
2013-01-03 18:32:00,17.3,12.7,30.27,WSW,245,3.0,6.0,82,0.00,,,0.00,0,Wunderground v.1.15,2013-01-04 00:32:00,
2013-01-03 18:37:00,17.2,12.6,30.27,WSW,240,3.0,6.0,82,0.00,,,0.00,0,Wunderground v.1.15,2013-01-04 00:37:00,
2013-01-03 18:42:00,17.1,12.6,30.27,WSW,244,3.0,5.0,82,0.00,,,0.00,0,Wunderground v.1.15,2013-01-04 00:42:00,
2013-01-03 18:47:00,16.9,12.4,30.27,WSW,246,3.0,6.0,82,0.00,,,0.00,0,Wunderground v.1.15,2013-01-04 00:47:00,
2013-01-03 18:52:00,16.8,12.3,30.27,WSW,247,2.0,6.0,82,0.00,,,0.00,0,Wunderground v.1.15,2013-01-04 00:52:00,
2013-01-03 18:57:00,16.7,12.2,30.27,WSW,244,4.0,6.0,82,0.00,,,0.00,0,Wunderground v.1.15,2013-01-04 00:57:00,
2013-01-03 19:02:00,16.5,12.0,30.28,WSW,257,2.0,5.0,82,0.00,,,0.00,0,Wunderground v.1.15,2013-01-04 01:02:00,
2013-01-03 19:07:00,16.4,11.9,30.27,WSW,251,2.0,6.0,82,0.00,,,0.00,0,Wunderground v.1.15,2013-01-04 01:07:00,
2013-01-03 19:12:00,16.2,11.9,30.27,WSW,252,3.0,7.0,83,0.00,,,0.00,0,Wunderground v.1.15,2013-01-04 01:12:00,
2013-01-03 19:17:00,16.1,11.8,30.27,WSW,238,1.0,7.0,83,0.00,,,0.00,0,Wunderground v.1.15,2013-01-04 01:17:00,
2013-01-03 19:22:00,15.9,11.7,30.27,WSW,244,2.0,7.0,83,0.00,,,0.00,0,Wunderground v.1.15,2013-01-04 01:22:00,
2013-01-03 19:27:00,15.8,11.6,30.27,WSW,238,1.0,7.0,83,0.00,,,0.00,0,Wunderground v.1.15,2013-01-04 01:27:00,
2013-01-03 19:32:00,15.7,11.5,30.27,WSW,251,3.0,7.0,83,0.00,,,0.00,0,Wunderground v.1.15,2013-01-04 01:32:00,
2013-01-03 19:38:00,15.5,11.3,30.28,WSW,248,0.0,9.0,83,0.00,,,0.00,0,Wunderground v.1.15,2013-01-04 01:38:00,
2013-01-03 19:43:00,15.5,11.3,30.27,WSW,244,4.0,5.0,83,0.00,,,0.00,0,Wunderground v.1.15,2013-01-04 01:43:00,
2013-01-03 19:48:00,15.4,11.2,30.28,WSW,246,3.0,6.0,83,0.00,,,0.00,0,Wunderground v.1.15,2013-01-04 01:48:00,
2013-01-03 19:53:00,15.3,11.1,30.27,WSW,246,1.0,4.0,83,0.00,,,0.00,0,Wunderground v.1.15,2013-01-04 01:53:00,
2013-01-03 19:58:00,15.2,11.0,30.27,WSW,247,1.0,4.0,83,0.00,,,0.00,0,Wunderground v.1.15,2013-01-04 01:58:00,
2013-01-03 20:03:00,15.0,10.8,30.27,WSW,246,3.0,5.0,83,0.00,,,0.00,0,Wunderground v.1.15,2013-01-04 02:03:00,
2013-01-03 20:08:00,15.0,10.8,30.26,WSW,245,1.0,5.0,83,0.00,,,0.00,0,Wunderground v.1.15,2013-01-04 02:08:00,
2013-01-03 20:13:00,14.9,10.7,30.26,WSW,242,4.0,5.0,83,0.00,,,0.00,0,Wunderground v.1.15,2013-01-04 02:13:00,
2013-01-03 20:18:00,14.8,10.6,30.26,WSW,237,3.0,5.0,83,0.00,,,0.00,0,Wunderground v.1.15,2013-01-04 02:18:00,
2013-01-03 20:23:00,14.7,10.5,30.26,WSW,246,3.0,6.0,83,0.00,,,0.00,0,Wunderground v.1.15,2013-01-04 02:23:00,
2013-01-03 20:28:00,14.8,10.6,30.26,WSW,252,2.0,10.0,83,0.00,,,0.00,0,Wunderground v.1.15,2013-01-04 02:28:00,
2013-01-03 20:33:00,14.8,10.6,30.26,WSW,249,4.0,8.0,83,0.00,,,0.00,0,Wunderground v.1.15,2013-01-04 02:33:00,
2013-01-03 20:38:00,14.8,10.6,30.26,SW,230,7.0,8.0,83,0.00,,,0.00,0,Wunderground v.1.15,2013-01-04 02:38:00,
2013-01-03 20:43:00,14.6,10.1,30.26,WSW,238,5.0,9.0,82,0.00,,,0.00,0,Wunderground v.1.15,2013-01-04 02:43:00,
2013-01-03 20:48:00,14.5,10.0,30.26,WSW,253,5.0,9.0,82,0.00,,,0.00,0,Wunderground v.1.15,2013-01-04 02:48:00,
2013-01-03 20:53:00,14.4,9.9,30.26,SW,236,2.0,6.0,82,0.00,,,0.00,0,Wunderground v.1.15,2013-01-04 02:53:00,
2013-01-03 20:58:00,14.3,9.8,30.26,WSW,252,1.0,6.0,82,0.00,,,0.00,0,Wunderground v.1.15,2013-01-04 02:58:00,
2013-01-03 21:03:00,14.2,9.7,30.26,WSW,251,1.0,8.0,82,0.00,,,0.00,0,Wunderground v.1.15,2013-01-04 03:03:00,
2013-01-03 21:08:00,14.1,9.6,30.26,WSW,244,6.0,10.0,82,0.00,,,0.00,0,Wunderground v.1.15,2013-01-04 03:08:00,
2013-01-03 21:13:00,14.0,9.5,30.26,WSW,247,2.0,8.0,82,0.00,,,0.00,0,Wunderground v.1.15,2013-01-04 03:13:00,
2013-01-03 21:18:00,13.9,9.4,30.26,WSW,248,6.0,9.0,82,0.00,,,0.00,0,Wunderground v.1.15,2013-01-04 03:18:00,
2013-01-03 21:23:00,13.8,9.3,30.26,WSW,250,4.0,8.0,82,0.00,,,0.00,0,Wunderground v.1.15,2013-01-04 03:23:00,
2013-01-03 21:28:00,13.7,9.2,30.26,West,266,4.0,8.0,82,0.00,,,0.00,0,Wunderground v.1.15,2013-01-04 03:28:00,
2013-01-03 21:33:00,13.5,9.0,30.26,WSW,246,2.0,7.0,82,0.00,,,0.00,0,Wunderground v.1.15,2013-01-04 03:33:00,
2013-01-03 21:38:00,13.4,8.9,30.26,WSW,253,1.0,7.0,82,0.00,,,0.00,0,Wunderground v.1.15,2013-01-04 03:38:00,
2013-01-03 21:43:00,13.2,8.7,30.26,WSW,252,3.0,6.0,82,0.00,,,0.00,0,Wunderground v.1.15,2013-01-04 03:43:00,
2013-01-03 21:48:00,13.1,8.6,30.26,WSW,237,5.0,6.0,82,0.00,,,0.00,0,Wunderground v.1.15,2013-01-04 03:48:00,
2013-01-03 21:53:00,13.0,8.5,30.27,WSW,254,4.0,6.0,82,0.00,,,0.00,0,Wunderground v.1.15,2013-01-04 03:53:00,
2013-01-03 21:58:00,12.9,8.4,30.27,WSW,258,5.0,6.0,82,0.00,,,0.00,0,Wunderground v.1.15,2013-01-04 03:58:00,
2013-01-03 22:03:00,12.7,8.2,30.27,WSW,247,3.0,8.0,82,0.00,,,0.00,0,Wunderground v.1.15,2013-01-04 04:03:00,
2013-01-03 22:08:00,12.6,8.1,30.27,WSW,254,4.0,9.0,82,0.00,,,0.00,0,Wunderground v.1.15,2013-01-04 04:08:00,
2013-01-03 22:13:00,12.4,8.0,30.27,WSW,249,3.0,8.0,82,0.00,,,0.00,0,Wunderground v.1.15,2013-01-04 04:13:00,
2013-01-03 22:18:00,12.2,7.8,30.27,WSW,256,3.0,10.0,82,0.00,,,0.00,0,Wunderground v.1.15,2013-01-04 04:18:00,
2013-01-03 22:24:00,12.1,7.7,30.27,WSW,256,5.0,8.0,82,0.00,,,0.00,0,Wunderground v.1.15,2013-01-04 04:24:00,
2013-01-03 22:29:00,11.9,7.2,30.27,West,269,6.0,9.0,81,0.00,,,0.00,0,Wunderground v.1.15,2013-01-04 04:29:00,
2013-01-03 22:34:00,11.8,7.1,30.27,WSW,257,4.0,7.0,81,0.00,,,0.00,0,Wunderground v.1.15,2013-01-04 04:34:00,
2013-01-03 22:39:00,11.7,7.0,30.27,West,260,4.0,7.0,81,0.00,,,0.00,0,Wunderground v.1.15,2013-01-04 04:39:00,
2013-01-03 22:44:00,11.6,6.9,30.27,WSW,252,1.0,6.0,81,0.00,,,0.00,0,Wunderground v.1.15,2013-01-04 04:44:00,
2013-01-03 22:49:00,11.3,6.6,30.26,WSW,248,5.0,6.0,81,0.00,,,0.00,0,Wunderground v.1.15,2013-01-04 04:49:00,
2013-01-03 22:54:00,11.1,6.4,30.25,WSW,257,3.0,9.0,81,0.00,,,0.00,0,Wunderground v.1.15,2013-01-04 04:54:00,
2013-01-03 22:59:00,11.0,6.3,30.25,WSW,244,2.0,9.0,81,0.00,,,0.00,0,Wunderground v.1.15,2013-01-04 04:59:00,
2013-01-03 23:03:00,10.8,6.1,30.26,WSW,244,2.0,4.0,81,0.00,,,0.00,0,Wunderground v.1.15,2013-01-04 05:03:00,
2013-01-03 23:08:00,10.7,5.7,30.26,WSW,244,3.0,8.0,80,0.00,,,0.00,0,Wunderground v.1.15,2013-01-04 05:08:00,
2013-01-03 23:13:00,10.5,5.5,30.25,WSW,244,6.0,7.0,80,0.00,,,0.00,0,Wunderground v.1.15,2013-01-04 05:13:00,
2013-01-03 23:18:00,10.5,5.5,30.25,SW,233,8.0,9.0,80,0.00,,,0.00,0,Wunderground v.1.15,2013-01-04 05:18:00,
2013-01-03 23:23:00,10.5,5.5,30.25,WSW,248,1.0,7.0,80,0.00,,,0.00,0,Wunderground v.1.15,2013-01-04 05:23:00,
2013-01-03 23:28:00,10.4,5.5,30.25,WSW,240,3.0,9.0,80,0.00,,,0.00,0,Wunderground v.1.15,2013-01-04 05:28:00,
2013-01-03 23:33:00,10.4,5.5,30.25,WSW,252,3.0,7.0,80,0.00,,,0.00,0,Wunderground v.1.15,2013-01-04 05:33:00,
2013-01-03 23:38:00,10.3,5.4,30.25,SW,236,4.0,7.0,80,0.00,,,0.00,0,Wunderground v.1.15,2013-01-04 05:38:00,
2013-01-03 23:43:00,10.3,5.4,30.25,WSW,243,2.0,8.0,80,0.00,,,0.00,0,Wunderground v.1.15,2013-01-04 05:43:00,
2013-01-03 23:48:00,10.1,5.2,30.25,WSW,249,3.0,8.0,80,0.00,,,0.00,0,Wunderground v.1.15,2013-01-04 05:48:00,
2013-01-03 23:53:00,10.0,5.1,30.24,West,261,3.0,5.0,80,0.00,,,0.00,0,Wunderground v.1.15,2013-01-04 05:53:00,
2013-01-03 23:58:00,9.9,5.2,30.24,WSW,246,4.0,7.0,81,0.00,,,0.00,0,Wunderground v.1.15,2013-01-04 05:58:00,